Oregon State Current Weather Observations

 
 ASUS46 KPQR 131710
 RWROR 
 
 OREGON REGIONAL WEATHER ROUNDUP
 NATIONAL WEATHER SERVICE PORTLAND OR
 900 AM PST THU DEC 13 2018
 
 NOTE: "FAIR" INDICATES FEW OR NO CLOUDS BELOW 12,000 FEET WITH
 NO SIGNIFICANT WEATHER AND/OR OBSTRUCTIONS TO VISIBILITY.
 
 ORZ001>013-131800-
 NORTHWEST OREGON
 
   
 CITY           SKY/WX    TMP DP  RH WIND       PRES   REMARKS
 ASTORIA        CLOUDY    53  44  71 S21G33    30.07S                  
 TILLAMOOK      CLOUDY    52  41  66 SE3       30.16S                  
 NEWPORT        MOCLDY    52  43  71 S14G20    30.20S                  
 PORTLAND       MOCLDY    45  39  79 SE10      30.19F                  
 VANCOUVER WA   MOCLDY    45  39  79 SE10      30.19S                  
 SCAPPOOSE      MOCLDY    47  39  74 S8        30.16F                  
 HILLSBORO      CLOUDY    46  40  79 SE10      30.16S                  
 AURORA         MOCLDY    44  37  76 S8        30.20F                  
 MCMINNVILLE    MOCLDY    42  38  85 E5        30.18S                  
 SALEM          MOCLDY    45  37  73 S6        30.19F                  
 CORVALLIS      MOCLDY    43  38  82 SE13      30.22F                  
 EUGENE         PTSUNNY   41  37  86 S6        30.24S                  
 
ORZ021-028-131800- SOUTHWEST OREGON CITY SKY/WX TMP DP RH WIND PRES REMARKS NORTH BEND SUNNY 41 40 96 S9 30.25S BROOKINGS SUNNY 41 37 86 E5 30.26S ROSEBURG FOG 33 32 96 CALM 30.25R VSB 1/4 SEXTON SUMMIT MOSUNNY 42 23 46 SE13 30.21S GRANTS PASS CLOUDY 37 36 93 CALM 30.32 MEDFORD FOG 30 30 100 CALM 30.31F VSB 1/4
ORZ014>016-041-131800- COLUMBIA GORGE CITY SKY/WX TMP DP RH WIND PRES REMARKS TROUTDALE MOCLDY 43 39 86 E10 30.21S HOOD RIVER FOG 36 34 93 CALM 30.22S VSB<1/4 THE DALLES MOSUNNY 35 33 92 SE5 30.23S
ORZ029>031-041-044-049-050-061>064-502-503-505>511-131800- EASTERN OREGON CITY SKY/WX TMP DP RH WIND PRES REMARKS MADRAS PTSUNNY 41 25 52 S16G23 30.21 REDMOND CLOUDY 40 23 50 S16 30.23R WCI 31 BEND PTSUNNY 37 23 56 S12G17 30.22S WCI 30 PRINEVILLE CLOUDY 39 21 48 SE9G15 30.24S KLAMATH FALLS MOSUNNY 28 24 85 CALM 30.34R LAKEVIEW MOSUNNY 25 21 85 CALM 30.36R HERMISTON CLOUDY 41 32 70 CALM 30.18R PENDLETON CLOUDY 48 28 46 SW12 30.18R JOHN DAY CLOUDY 33 25 72 NE9 30.31 MEACHAM CLOUDY 31 25 78 CALM 30.23S LA GRANDE CLOUDY 35 23 61 S14G24 30.34R WCI 26 BAKER CITY CLOUDY 28 23 81 SE5 30.38R BURNS CLOUDY 20 17 88 W5 30.36R ROME N/A 32 20 61 CALM 30.37R ONTARIO CLOUDY 29 24 82 CALM 30.49R

Data from: http://www.wrh.noaa.gov/sew/get.php?pil=RWR&sid=OR&version=0&format=printer

Current Observations

Current Weather Conditions by Major Highway
Washington State Current Weather Observations   …  Oregon State Current Weather Observation



48 Hour Forecast


Seattle  …  Vancouver  …  Portland
————————————————————————————————————————
Bend  …  Spokane  …  Richland  …  Pendleton  …  Blue Mountains I-84  …  Yakima
————————————————————————————————————————
Goldendale, Washington Higher Elevations  …  Dallesport Airport - Goldendale  …  Bingen - White Salmon - Hood River  …  Index





Top of Page